Lapse_Rate
6.5 6.4 6.4 6.5 6.6 6.6 6.6 6.6 6.7 6.7 6.5 6.4 6.4 6.4 6.4 6.2 6.1 6.1 5.9 6.0 6.0 5.9 5.9 6.2 6.3 6.2 6.1 6.0 6.1 5.9 5.9 5.8 5.9 5.9 6.2 6.4 6.5 6.2 5.7 5.8 5.9 5.7 5.6
6.3 6.3 6.4 6.4 6.5 6.6 6.5 6.5 6.4 6.4 6.4 6.4 6.4 6.3 6.2 6.2 6.1 6.1 6.2 6.3 6.0 6.0 6.0 5.9 6.0 6.1 6.3 6.1 6.1 6.0 5.9 5.9 5.8 5.6 5.9 6.2 6.4 6.5 5.7 5.6 5.6 5.7 5.6
6.3 6.2 6.2 6.1 6.1 6.2 6.2 6.1 6.0 6.0 6.0 6.1 6.1 5.9 5.9 6.0 6.1 6.0 6.0 5.9 6.1 6.1 6.4 6.4 6.3 5.9 6.1 6.2 6.2 6.1 5.9 5.9 5.9 5.8 5.8 5.6 6.0 5.9 6.2 5.9 5.5 5.5 5.7
6.2 6.1 6.1 6.0 6.0 6.0 6.1 6.1 6.2 6.1 6.0 6.1 6.2 6.1 6.0 5.8 5.9 5.8 5.9 5.8 6.3 6.4 6.3 6.1 5.9 6.0 6.2 6.3 6.2 6.1 6.0 5.8 5.8 5.8 5.7 5.7 5.5 5.6 5.8 5.6 5.4 5.2 5.5
6.3 6.4 6.3 6.3 6.3 6.3 6.3 6.1 6.1 6.2 6.3 6.3 6.0 6.1 6.0 6.0 5.9 5.8 5.8 5.9 6.5 6.6 6.6 6.4 6.0 6.0 6.1 6.3 6.5 6.3 6.2 6.0 5.9 5.8 5.5 5.6 5.5 5.7 5.5 5.9 5.6 5.4 5.4
6.3 6.4 6.4 6.4 6.4 6.2 6.1 6.1 6.1 6.2 6.2 6.3 6.4 6.4 6.4 6.3 6.3 6.2 5.9 6.1 6.6 6.5 6.5 6.9 7.1 6.9 6.6 6.4 6.5 6.3 6.0 6.1 6.2 6.0 5.8 5.6 5.4 5.4 5.3 5.5 6.2 5.6 5.9
6.4 6.4 6.4 6.4 6.3 6.2 6.2 6.2 6.2 6.2 6.1 6.0 6.2 6.4 6.5 6.6 7.0 6.6 6.5 6.9 6.9 6.8 7.1 7.1 7.2 7.1 7.0 6.8 6.4 6.3 6.2 5.9 5.9 5.9 5.9 5.7 5.4 5.6 5.7 5.6 5.9 6.0 5.7
6.3 6.2 6.3 6.3 6.3 6.5 6.5 6.6 6.5 6.4 6.4 6.6 6.6 6.6 6.8 6.9 7.1 7.0 6.9 7.0 7.2 7.2 7.1 7.3 7.3 7.1 6.9 7.0 7.0 6.4 6.3 6.4 6.1 6.0 5.7 6.1 5.7 5.6 5.9 5.8 5.9 6.0 6.0
6.3 6.3 6.4 6.4 6.6 6.6 6.8 6.8 6.7 6.6 6.8 6.9 7.0 7.0 6.9 6.7 6.3 6.4 6.5 6.9 6.9 6.9 7.0 6.7 6.9 7.0 7.2 7.1 7.1 7.2 6.7 6.3 6.3 6.3 6.0 6.2 6.0 5.9 6.0 6.1 6.0 6.0 6.1
6.4 6.3 6.4 6.5 6.6 6.7 6.7 6.8 6.6 6.8 6.9 6.9 6.8 6.8 6.7 6.6 6.5 6.2 6.0 6.2 6.0 6.4 6.6 6.6 6.4 6.5 6.5 6.6 7.1 7.0 6.6 6.8 6.7 6.5 6.3 6.2 6.5 6.2 6.2 6.3 6.0 5.9 5.9
6.5 6.6 6.7 6.7 6.6 6.8 6.8 6.7 6.6 6.7 6.6 6.6 6.6 6.6 6.5 6.5 6.3 6.1 6.0 5.8 5.9 6.1 6.0 6.4 6.2 6.1 6.2 6.4 6.4 6.4 6.6 6.8 6.8 6.8 6.7 6.4 6.4 6.5 6.5 6.3 6.0 6.0 5.8
6.6 6.4 6.5 6.6 6.7 6.7 6.5 6.6 6.5 6.4 6.5 6.5 6.5 6.7 6.6 6.5 6.2 6.0 6.0 6.3 6.3 6.3 6.3 6.5 6.4 6.4 6.2 6.3 6.1 6.0 6.1 6.1 6.5 6.7 6.8 6.7 6.4 6.4 6.5 6.6 6.5 6.1 6.0
6.3 6.4 6.4 6.5 6.3 6.3 6.5 6.5 6.3 6.3 6.4 6.5 6.5 6.5 6.7 6.6 6.4 6.5 6.6 6.5 6.5 6.7 6.6 6.6 6.7 6.9 6.6 6.4 6.5 6.2 6.2 6.1 6.1 6.4 6.7 6.8 6.7 6.6 6.6 6.5 6.7 6.5 6.1
6.1 6.3 6.4 6.2 6.2 6.5 6.5 6.4 6.4 6.4 6.5 6.6 6.6 6.4 6.5 6.8 6.8 6.8 6.8 6.7 6.7 6.7 6.5 6.7 6.7 6.8 6.9 6.5 6.5 6.4 6.3 6.2 6.3 6.3 6.4 6.7 6.7 6.9 6.8 6.6 6.6 6.7 6.3
5.9 6.0 6.4 6.6 6.3 6.2 6.4 6.3 6.2 6.4 6.3 6.4 6.6 6.6 6.7 6.8 6.8 6.8 6.8 6.7 6.8 6.9 6.9 6.6 6.6 6.6 6.7 6.6 6.6 6.4 6.3 6.3 6.2 6.2 6.4 6.5 6.6 6.7 6.9 6.8 6.5 6.6 6.7
5.4 6.1 6.3 6.2 6.2 6.1 6.3 6.2 6.3 6.2 6.6 6.7 6.9 6.9 6.9 6.8 6.9 6.8 6.8 6.8 6.9 7.0 7.2 7.2 6.9 6.6 6.7 6.8 6.6 6.5 6.4 6.3 6.3 6.3 6.2 6.2 6.3 6.4 6.4 6.7 6.6 6.4 6.5
5.4 5.9 6.0 6.2 6.2 6.0 6.3 6.4 6.6 6.8 7.1 6.9 6.7 6.6 6.5 6.5 6.6 6.7 6.6 6.7 6.8 6.9 7.1 7.2 7.1 6.9 7.0 7.1 6.7 6.5 6.4 6.3 6.2 6.3 6.3 6.3 6.3 6.4 6.4 6.2 6.4 6.5 6.4
5.6 5.8 6.0 6.5 6.2 6.3 6.4 6.6 7.2 7.0 6.8 6.7 6.6 6.6 6.5 6.5 6.4 6.4 6.5 6.7 6.8 6.9 7.0 7.1 7.1 6.9 7.0 7.1 6.8 6.7 6.6 6.4 6.2 6.2 6.1 6.2 6.2 6.3 6.2 6.1 5.9 6.2 6.3
5.9 6.4 6.4 6.5 6.1 6.4 6.7 7.1 7.0 6.8 6.7 6.6 6.6 6.5 6.3 6.2 6.3 6.4 6.6 6.8 6.8 6.9 7.1 7.2 7.1 7.3 7.2 7.1 6.9 6.7 6.5 6.5 6.2 6.0 6.1 6.1 5.9 5.6 5.5 5.6 5.5 5.7 6.0
6.4 6.5 6.5 6.3 6.4 6.9 7.2 7.0 6.9 6.9 6.7 6.5 6.4 6.3 6.2 6.3 6.4 6.5 6.7 6.8 6.9 7.0 7.1 7.2 7.3 7.4 7.4 7.1 7.1 6.9 6.6 6.7 6.4 6.4 6.4 6.0 5.9 5.4 5.0 4.6 4.5 4.6 5.1
6.5 6.5 6.7 6.4 7.2 7.2 7.2 7.0 6.9 6.6 6.5 6.3 6.1 6.2 6.4 6.3 6.5 6.6 6.7 6.8 6.9 7.1 7.2 7.2 7.4 7.4 7.3 7.2 7.1 7.1 7.0 7.0 6.9 6.8 6.7 6.3 6.1 5.3 4.8 4.4 4.4 4.3 4.1
6.8 6.9 7.1 7.4 7.2 7.1 7.0 6.8 6.8 6.4 6.3 6.2 6.1 6.2 6.4 6.3 6.4 6.6 6.8 7.0 7.0 7.0 7.1 7.2 7.2 7.2 7.3 7.1 7.1 7.1 7.1 7.1 7.0 6.9 6.7 6.5 6.3 5.6 4.8 4.6 4.3 4.1 4.0
6.9 6.8 7.3 7.2 7.0 7.0 6.8 6.6 6.5 6.4 6.2 6.1 6.1 6.2 6.3 6.4 6.6 6.7 6.8 7.0 7.1 7.2 7.1 7.1 7.2 7.1 7.0 7.0 6.9 6.9 7.1 7.1 6.7 6.5 6.4 6.2 6.3 6.0 5.4 4.9 4.6 4.2 3.9
7.0 7.2 7.2 7.0 6.8 6.9 6.6 6.5 6.4 6.3 6.1 6.1 6.2 6.2 6.2 6.4 6.5 6.7 6.8 6.9 6.8 6.9 7.0 7.1 7.2 7.1 6.9 6.7 6.7 6.7 6.8 6.8 6.4 6.2 6.3 6.3 6.1 6.2 5.9 5.4 5.0 4.5 4.2
7.2 6.9 6.9 6.9 6.8 6.6 6.5 6.4 6.2 6.1 6.0 6.2 6.1 6.2 6.2 6.4 6.4 6.5 6.4 6.5 6.6 6.6 6.7 6.8 6.9 7.0 7.1 6.6 6.4 6.5 6.5 6.5 6.2 6.2 5.9 5.8 5.7 5.9 5.8 5.7 5.5 5.0 4.8
6.8 6.7 6.7 6.9 6.6 6.5 6.5 6.3 6.1 6.0 6.0 6.1 6.1 6.1 6.2 6.2 6.2 6.2 6.2 6.2 6.7 6.5 6.5 6.5 6.5 6.8 6.9 6.7 6.3 6.3 6.1 6.2 6.1 6.0 5.8 5.7 5.7 5.7 5.8 5.5 5.5 5.3 5.4
Wind_Speed
3 8 6 9 11 12 12 8 9 8 8 10 11 8 8 11 14 11 11 10 5 4 5 5 8 9 12 13 15 15 14 15 19 22 26 27 29 28 23 27 27 26 26
5 6 5 7 9 9 8 9 7 4 4 7 5 9 7 7 11 13 11 8 10 18 14 10 7 5 2 4 8 15 17 15 16 16 23 27 28 27 28 23 27 30 28
6 7 5 5 6 7 11 11 8 10 5 6 6 6 10 9 8 10 9 8 18 22 20 17 16 14 12 12 9 8 9 14 15 15 15 20 25 27 26 24 22 32 32
6 9 5 4 8 10 11 5 4 4 5 5 4 5 4 9 10 8 11 13 11 11 17 19 18 19 20 17 16 17 17 21 19 19 17 16 20 24 26 26 27 30 34
7 10 6 5 6 6 5 4 4 4 4 4 7 6 5 5 5 6 12 16 15 15 12 12 15 17 18 18 19 19 20 20 19 21 22 24 25 22 25 28 27 21 32
8 9 8 5 8 5 5 4 5 4 2 4 7 7 5 5 4 4 6 11 11 13 10 9 9 11 12 16 18 19 20 21 20 19 19 24 25 28 24 32 30 40 42
8 8 6 6 6 5 5 6 4 6 4 6 4 5 4 4 6 4 5 5 5 9 7 6 8 7 6 10 14 20 22 24 25 25 19 18 22 24 31 27 33 35 28
9 9 6 4 6 4 6 6 6 4 3 5 4 3 4 2 5 4 4 5 6 10 7 4 5 6 4 6 12 20 23 24 25 22 24 20 20 21 22 21 13 21 23
10 10 9 7 5 4 4 5 5 6 4 5 6 3 4 3 5 4 5 5 6 5 7 11 12 17 14 14 17 18 25 26 23 23 24 23 21 20 20 19 19 22 23
10 10 11 10 7 6 5 4 5 4 4 4 3 5 3 2 3 4 5 5 6 5 5 7 11 17 19 16 21 24 28 25 23 24 23 24 23 21 20 20 19 21 23
10 10 11 10 7 5 4 6 5 5 4 4 3 3 4 3 4 1 4 6 6 5 3 5 10 12 14 15 17 21 24 19 21 24 25 24 19 19 19 21 19 18 20
4 8 9 9 7 6 5 4 4 6 5 4 3 4 3 2 3 3 3 5 5 5 4 5 5 9 12 13 17 23 18 17 20 23 25 23 20 18 18 19 20 19 19
4 3 7 5 4 5 4 6 3 5 4 4 6 4 3 3 3 3 2 3 3 5 1 4 5 10 11 13 16 20 16 20 23 23 22 24 22 21 21 19 20 20 20
5 6 6 7 5 6 5 5 3 2 4 3 5 5 4 3 3 2 2 3 4 2 4 5 4 8 13 12 19 19 13 20 21 21 20 23 22 21 22 22 20 21 21
5 5 7 6 6 6 4 4 4 4 4 5 5 5 4 4 4 4 3 2 2 3 4 5 3 8 12 12 18 16 13 19 21 20 22 25 24 24 24 24 24 23 22
6 5 5 5 5 5 5 4 4 3 4 3 3 5 5 4 4 2 3 3 3 3 3 4 4 4 8 11 16 13 12 15 19 19 24 25 28 29 29 28 27 26 24
5 6 7 5 5 5 5 5 4 4 5 5 5 6 7 6 5 4 4 3 3 3 3 3 4 4 5 7 11 12 10 11 12 18 21 22 25 28 29 30 30 30 28
5 5 5 5 5 6 5 4 6 5 6 6 6 7 7 7 7 7 5 5 4 5 3 5 3 3 7 8 10 5 10 9 7 11 15 20 24 26 28 29 29 30 31
5 5 5 6 5 5 5 5 5 6 7 6 6 8 8 9 8 7 8 6 5 6 5 3 4 4 6 9 8 9 6 9 9 10 10 16 22 26 26 28 28 29 31
5 5 6 5 5 4 5 5 5 6 6 6 6 8 7 7 6 7 7 8 8 7 5 5 4 5 7 9 7 7 4 5 5 11 13 10 18 22 25 26 28 29 30
5 6 6 5 5 8 7 7 3 6 6 6 6 9 7 7 6 8 5 6 8 6 6 6 6 5 7 7 8 6 5 3 3 9 5 8 8 14 17 20 25 28 29
6 6 6 6 8 7 8 9 6 7 6 6 6 6 8 10 5 8 10 11 10 5 8 6 6 6 8 8 7 7 4 4 2 14 4 6 11 6 11 16 25 26 27
7 7 9 11 10 6 9 12 16 7 6 5 6 5 5 7 8 6 6 11 12 14 12 6 5 4 4 5 8 9 8 7 3 6 4 3 6 3 11 17 21 25 24
6 6 6 7 9 4 9 10 11 5 4 8 7 5 4 3 5 3 4 4 5 3 5 5 2 2 3 8 9 8 9 2 6 7 12 3 3 3 10 15 23 24 24
7 6 5 7 9 4 7 5 2 4 4 7 4 7 6 3 9 8 4 4 4 3 1 1 2 6 10 16 18 9 9 8 3 2 8 2 3 4 4 6 17 23 25
7 6 6 7 12 5 6 4 4 3 5 4 7 5 9 7 10 11 5 3 4 1 3 4 3 7 8 10 14 13 6 6 4 4 4 5 5 4 3 3 13 18 17
Wind_Direction
54 50 38 42 46 28 14 0 14 349 332 343 332 317 319 336 328 321 326 345 28 59 28 346 338 316 299 296 300 292 283 269 256 238 238 238 236 233 234 220 212 211 207
28 64 51 53 37 40 356 3 359 330 328 315 324 323 319 303 296 300 308 322 44 73 67 54 50 59 31 330 324 320 309 295 286 272 248 241 236 221 218 229 236 223 212
59 81 67 47 19 25 30 11 355 350 345 345 331 349 322 320 323 316 315 37 78 60 57 56 56 49 46 19 5 345 329 315 300 294 285 270 236 218 210 222 241 243 221
60 68 77 51 352 30 41 5 4 341 344 326 343 309 312 309 298 282 266 89 84 98 65 53 54 57 54 45 34 33 43 40 30 19 1 313 274 228 211 215 224 232 228
57 86 66 42 27 46 60 20 353 351 328 3 327 316 285 269 284 314 81 72 63 53 71 78 64 50 51 49 42 34 28 31 30 25 13 2 353 293 226 210 215 239 246
44 85 83 32 59 42 37 18 0 345 341 10 315 295 303 295 299 39 79 81 82 71 63 48 51 66 48 42 39 34 25 18 15 18 15 5 356 352 271 224 218 222 233
64 49 78 61 54 69 41 29 350 347 15 4 339 333 285 110 43 15 95 80 51 117 115 82 68 54 40 64 40 29 23 15 6 359 5 8 359 356 5 228 219 215 213
66 67 46 66 30 68 57 39 10 360 5 34 353 296 3 32 4 53 37 80 54 30 7 57 114 116 67 69 59 33 19 11 3 354 349 355 356 351 356 350 324 236 217
80 80 72 57 58 51 61 49 12 36 349 17 41 39 357 6 328 12 26 49 33 43 32 9 20 27 40 51 62 26 13 9 0 354 345 344 344 344 348 346 345 342 240
77 73 60 66 47 61 37 41 39 10 11 21 17 6 24 296 9 332 345 25 11 43 64 42 28 35 25 21 36 16 4 360 359 354 345 338 334 338 337 338 340 338 348
85 74 69 61 56 52 58 44 50 23 32 25 20 359 1 336 61 328 312 350 354 341 43 90 67 41 37 19 38 5 352 3 3 357 349 347 338 334 337 335 332 329 330
93 85 95 82 59 59 40 62 49 48 25 48 359 24 46 24 8 353 334 326 342 312 310 91 90 62 40 30 23 3 15 24 15 6 0 2 5 359 354 346 341 336 331
115 108 98 77 81 72 69 93 55 48 36 49 20 7 357 45 8 342 346 353 309 297 21 76 87 63 42 51 25 6 25 29 21 11 11 15 14 14 10 5 359 354 348
106 122 107 106 100 77 64 56 66 64 70 36 63 36 329 42 23 15 356 339 335 325 357 23 60 50 40 52 26 9 36 31 23 19 23 26 26 25 21 16 15 11 7
143 121 119 112 105 95 66 88 81 23 55 36 50 36 354 23 345 344 12 1 342 314 310 14 341 19 26 34 30 10 53 37 23 27 38 36 33 34 31 24 20 18 12
107 141 121 111 94 87 69 54 75 40 59 54 49 45 21 359 319 3 358 332 326 304 287 353 342 349 23 29 18 16 25 46 26 42 46 43 40 38 37 31 24 20 17
164 143 122 128 122 98 66 90 103 42 70 63 36 49 22 350 358 358 358 331 352 328 321 322 311 326 40 41 7 19 35 64 38 47 47 47 45 42 38 36 28 27 25
154 119 120 117 103 86 82 75 59 60 53 49 46 49 29 9 5 359 337 353 350 335 339 306 324 342 59 27 360 359 25 40 63 49 53 47 44 43 40 36 31 28 27
124 126 119 109 105 110 109 88 86 76 63 48 53 57 33 26 13 352 325 17 7 336 309 338 311 25 47 26 356 351 24 34 26 28 46 63 56 45 42 37 33 30 28
146 123 103 96 120 113 97 81 86 96 97 77 78 75 59 51 19 351 7 8 3 344 343 356 12 22 37 19 359 347 344 55 24 16 3 78 64 48 42 37 34 31 29
156 122 118 137 101 71 42 15 41 71 66 75 71 98 76 79 61 45 43 23 18 357 14 355 28 19 26 8 357 334 335 354 85 38 348 25 71 66 38 38 34 30 27
107 103 146 121 87 81 60 27 4 89 66 54 45 53 80 43 69 71 64 59 48 28 19 11 38 23 19 1 337 327 332 350 9 25 332 31 9 81 56 35 39 34 27
100 78 87 87 85 87 84 68 67 79 78 68 51 24 55 54 19 11 46 61 63 44 38 41 44 26 359 334 329 325 330 328 64 357 349 32 8 26 74 47 42 34 30
104 104 99 109 106 99 100 95 104 95 89 78 58 20 68 44 25 21 38 43 75 82 53 48 72 280 282 341 348 328 328 329 107 46 17 15 331 336 76 44 38 37 28
133 134 123 122 113 103 121 124 335 117 113 101 90 72 57 22 41 42 73 63 69 358 103 65 26 36 33 31 24 6 9 15 26 27 17 322 334 332 62 55 36 28 27
142 141 138 130 126 117 142 149 8 140 126 123 132 89 65 63 52 56 36 60 54 344 353 3 50 45 49 45 40 40 16 22 13 17 342 354 347 350 1 59 40 22 20